Regional Weather Roundup
Issued by NWS

Home | Current Version | Previous Version | Graphics & Text | Print | Product List | Glossary Off
Versions: 1 2 3 4 5 6 7 8 9 10 11 12 13 14 15 16 17 18 19 20 21 22 23 24 25 26 27 28 29 30 31 32 33 34 35 36 37 38 39 40 41 42 43 44 45 46 47 48 49 50

112
ASUS43 KMKX 272211
RWRWI

WISCONSIN REGIONAL WEATHER ROUNDUP
NATIONAL WEATHER SERVICE MILWAUKEE/SULLIVAN WI
500 PM CDT SAT AUG 27 2016

NOTE: "FAIR" INDICATES FEW OR NO CLOUDS BELOW 12,000 FEET WITH NO
SIGNIFICANT WEATHER AND/OR OBSTRUCTIONS TO VISIBILITY.

WIZ001-002-006>008-014>016-023>028-272300-
NORTHWEST WISCONSIN

CITY           SKY/WX    TMP DP  RH WIND       PRES   REMARKS
SUPERIOR ARPT  CLOUDY    66  61  82 NE8       30.01S
ASHLAND        CLOUDY    65  62  90 NE5       30.03F
HAYWARD        LGT RAIN  62  60  93 E3        30.03F
SIREN          CLOUDY    63  61  94 NE5       30.01F
CUMBERLAND     DRIZZLE   63  61  94 S7        30.01F
RICE LAKE      LGT RAIN  64  61  92 S5        30.03S
CHETEK         NOT AVBL
LADYSMITH      DRIZZLE   67  61  79 CALM      30.04R
EAU CLAIRE     CLOUDY    65  63  93 SE5       30.01S
MENOMONIE      CLOUDY    66  64  92 SE7       30.01S
NEW RICHMOND   CLOUDY    65  59  81 S7        30.01S
OSCEOLA        CLOUDY    65  61  84 SE5       30.02F
$$

WIZ003>005-009-010-017-018-272300-
NORTH CENTRAL WISCONSIN

CITY           SKY/WX    TMP DP  RH WIND       PRES   REMARKS
MANITOWISH WTR NOT AVBL
ARBOR VITAE    CLOUDY    67  58  71 SE6       30.05S
WOODRUFF       CLOUDY    67  58  71 SE6       30.05S
RHINELANDER    CLOUDY    68  59  73 SE7       30.05F
EAGLE RIVER    CLOUDY    66  55  67 CALM      30.05S
LAND O LAKES   CLOUDY    67  57  71 SE3       30.06S
PHILLIPS       CLOUDY    66  59  78 E6        30.02F
TOMAHAWK       CLOUDY    66  58  75 CALM      30.05R
MEDFORD        CLOUDY    63  62  94 SE7       30.03S
MERRILL        CLOUDY    64  61  89 SE5       30.05S
$$

WIZ029-030-035-036-043>047-272300-
CENTRAL WISCONSIN

CITY           SKY/WX    TMP DP  RH WIND       PRES   REMARKS
WAUSAU         CLOUDY    64  60  87 SE7       30.03S
MOSINEE        CLOUDY    64  63  94 E3        30.05S
MARSHFIELD     CLOUDY    66  60  81 SE7       30.03S
STEVENS POINT  CLOUDY    63  60  91 SE5       30.04S
WAUPACA        CLOUDY    67  66  97 E3        30.03F FOG
WAUTOMA        CLOUDY    65  63  93 NE3       30.03F
WISC RAPIDS    CLOUDY    66  63  90 E6        30.04S
CAMP DOUGLAS   CLOUDY    67  64  90 CALM      30.02S
$$

WIZ011>013-019>022-031-037>040-048>050-272300-
NORTHEAST WISCONSIN

CITY           SKY/WX    TMP DP  RH WIND       PRES   REMARKS
ANTIGO         CLOUDY    63  59  87 CALM      30.06S
SHAWANO        CLOUDY    67  62  83 E3        30.04S
OCONTO         NOT AVBL
STURGEON BAY   LGT RAIN  63  62  97 NE6       30.04F FOG
GREEN BAY      CLOUDY    64  64 100 NE5       30.03S FOG
MANITOWOC      LGT RAIN  65  64  97 MISG      30.02F FOG
APPLETON       CLOUDY    64  64 100 NE5       30.02S FOG
CLINTONVILLE   CLOUDY    64  61  88 CALM      30.03S
OSHKOSH        CLOUDY    66  64  93 N6        30.02S
$$

WIZ032>034-041-042-053>061-272300-
SOUTHWEST WISCONSIN

CITY           SKY/WX    TMP DP  RH WIND       PRES   REMARKS
LA CROSSE      CLOUDY    71  65  81 S5        30.00S
SPARTA         CLOUDY    66  64  90 E5        30.03R
VIROQUA        CLOUDY    67  65  93 CALM      30.03S
BOSCOBEL       CLOUDY    71  67  87 NE3       30.01S
PRAIRIE DU CHI CLOUDY    73  65  75 CALM      30.01R
PLATTEVILLE    CLOUDY    74  71  90 W7        30.03R
$$

WIZ056-057-062-063-064-067-068-272300-
SOUTH CENTRAL WISCONSIN

CITY           SKY/WX    TMP DP  RH WIND       PRES   REMARKS
REEDSBURG      NOT AVBL
BARABOO/DELLS  CLOUDY    65  63  93 CALM      30.03S FOG
LONE ROCK      CLOUDY    70  66  87 CALM      30.02S
MINERAL POINT  CLOUDY    75  70  83 SW8       30.03R
MADISON        CLOUDY    75  68  78 NW6       30.00S
MIDDLETON      CLOUDY    76  70  82 W8        30.02S
WATERTOWN      CLOUDY    76  71  84 CALM      30.00S
MONROE         CLOUDY    79  68  69 SW10      30.01R HX  81
JANESVILLE     MOSUNNY   82  70  65 SW6       29.99S HX  86
$$

WIZ051-052-058>065-066-070>072-272300-
SOUTHEAST WISCONSIN

CITY           SKY/WX    TMP DP  RH WIND       PRES   REMARKS
MILWAUKEE      PTSUNNY   77  70  79 N6        30.00R
WAUKESHA       MOSUNNY   77  68  73 S7        30.01S
MILWAUKEE/TIMM CLOUDY    77  66  69 E5        30.01S
RACINE         CLOUDY    77  69  76 S10       30.02R
BURLINGTON     CLOUDY    79  70  73 SW3       30.00S HX  82
KENOSHA        CLOUDY    80  71  74 SW6       30.01S HX  84
FOND DU LAC    CLOUDY    68  65  90 N6        30.02R
SHEBOYGAN      CLOUDY    68  66  93 NE6       30.01S
WEST BEND      PTSUNNY   75  68  78 SW3       30.01R
JUNEAU         CLOUDY    73  68  86 SW5       30.03R
$$

LSZ147-162-272300-
LAKE SUPERIOR

STATION/POSITION TIME  TEMP    WIND        PRES    WAVE
                       AIR SEA DIR/SP/G            HT/PER
                 (UTC) (F)     (DEG/KT/KT) (MB)    (FT/S)
W MID LAKE BUOY  2150   65 67   60/ 12/ 14 1016.5F   1
DEVILS ISLAND    2200   65      80/ 12/ 13 1016.7F
PORT WING        2100   68      40/  5/  5 1016.6
SAXON HARBOR     2100   67     100/  3/  6 1016.6
$$

LMZ867-665-643>646-272300-
LAKE MICHIGAN

STATION/POSITION TIME  TEMP    WIND        PRES    WAVE
                       AIR SEA DIR/SP/G            HT/PER
                 (UTC) (F)     (DEG/KT/KT) (MB)    (FT/S)
CHAMBERS ISLAND  2100   65      60/  6/  8 1017.3F
N MID LAKE BUOY  2150   65 70   70/ 10/ 12 1016.5F   1/ 3
NORTHPORT PIER   2100   64      90/  6/  8 1017.3F
SISTER BAY       2107   66     110/  4/  7   N/A
KEWAUNEE LAKESHO 2100   63      20/  4/  7 1016.3F
SHEBOYGAN LAKESH 2200   62      10/ 10/ 10 1015.9F
PORT WASHINGTON  2100   68      30/  4/  5 1016.6F
ATWATER BUOY     2100   65      10/  4/  6   N/A
MILWAUKEE LAKESH 2110   67      10/  3/  4   N/A
S MID LAKE BUOY  2150   75 75  160/ 12/ 14 1015.4F   2/ 4
KENOSHA   LAKESH 2200   72     190/  9/ 12 1015.6S
$$

TC  - TEMPERATURE IN CELSIUS
VSB - VISIBILITY IN STATUTE MILES
WCI - WIND CHILL INDEX
HX  - HEAT INDEX





USA.gov is the U.S. government's official web portal to all federal, state and local government web resources and services.